Regional Weather Roundup
Issued by NWS

Home | Current Version | Previous Version | Graphics & Text | Print | Product List | Glossary Off
Versions: 1 2 3 4 5 6 7 8 9 10 11 12 13 14 15 16 17 18 19 20 21 22 23 24 25 26 27 28 29 30 31 32 33 34 35 36 37 38 39 40 41 42 43 44 45 46 47 48 49 50

000
ASUS43 KTOP 011008
RWRKS

WEATHER ROUNDUP FOR KANSAS
NATIONAL WEATHER SERVICE GOODLAND KS
500 AM CDT SUN MAY 01 2016

NOTE:  "FAIR" INDICATES FEW OR NO CLOUDS BELOW 12,000 FEET WITH NO
SIGNIFICANT WEATHER AND/OR OBSTRUCTIONS TO VISIBILITY.

KSZ001>006-013>018-027>032-041>047-011100-
NORTHWEST KANSAS

CITY           SKY/WX    TMP DP  RH WIND       PRES   REMARKS
GOODLAND       CLOUDY    34  32  92 N21G28    30.08R WCI  22
HAYS           CLOUDY    43  32  65 NW16      29.98S
HILL CITY      CLOUDY    41  38  89 NW15      30.01R
RUSSELL        CLOUDY    42  38  85 W16       29.95S
$$

KSZ061>065-074>080-084>089-011100-
SOUTHWEST KANSAS

CITY           SKY/WX    TMP DP  RH WIND       PRES   REMARKS
DODGE CITY     CLOUDY    39  33  79 NW21      30.03R WCI  29
ELKHART          N/A     41  32  71 NW12        N/A
GARDEN CITY    CLOUDY    39  33  79 NW22G29   30.05R WCI  29
GREAT BEND     CLOUDY    43  32  65 NW15G24   29.98R
LIBERAL        CLOUDY    39  30  70 NW14      30.08S WCI  31
PRATT          CLOUDY    40  35  83 NW14      30.00S WCI  32
$$

KSZ066>073-081>083-090>101-011100-
SOUTHEAST KANSAS

CITY           SKY/WX    TMP DP  RH WIND       PRES   REMARKS
CHANUTE        CLEAR     46  42  86 W3        29.92F
COFFEYVILLE    CLEAR     46  45  96 CALM      29.94S
HUTCHINSON     CLOUDY    46  41  82 W10       29.97R
MEDICINE LODGE   N/A     41  37  86 W8        29.99F
NEWTON         PTCLDY    41  34  75 W6        29.97S
PARSONS        CLEAR     44  43  96 CALM      29.94F
WICHITA INTL   CLEAR     43  39  86 W9        29.97R
WICHITA JABRA  CLEAR     42  39  89 W8        29.96R
WICHITA MCCONL CLEAR     43  39  84 NW7       29.97R
WINFIELD       CLEAR     42  39  89 W6        29.99R
$$

KSZ007>012-019>026-033>040-048>060-102>105-011100-
NORTHEAST KANSAS

CITY           SKY/WX    TMP DP  RH WIND       PRES   REMARKS
CONCORDIA      CLOUDY    44  40  85 W13       29.91S
EMPORIA        CLEAR     45  42  89 W7        29.92S
LAWRENCE       MOCLDY    48  45  89 W6        29.91S
MANHATTAN      CLOUDY    50  43  77 W5        29.91S
MARYSVILLE     CLOUDY    46  45  93 SW3       29.90R
OLATHE IND     CLOUDY    50  45  83 W7        29.91S
OLATHE EXE     CLOUDY    50  45  83 W6        29.90S
SALINA         CLOUDY    45  40  82 W12       29.95R
TOPEKA BILLARD CLEAR     45  43  93 W3        29.91R
TOPEKA FORBES  CLEAR     47  43  86 SW8       29.90S
$$




USA.gov is the U.S. government's official web portal to all federal, state and local government web resources and services.